| time (UTC) | temp F | wind direction | speed knots | gust knots | rain 1hr in | rain 24hr in | rain mn in | humidity % | barometer mb |
| 20260906223330 | 79 | 214 | 6.1 | 13.0 | 0.00 | 0.00 | 0.00 | 25 | 1026.1 |
| 20260906222828 | 80 | 238 | 5.2 | 13.9 | 0.00 | 0.00 | 0.00 | 25 | 1026.2 |
| 20260906222329 | 80 | 236 | 4.3 | 13.9 | 0.00 | 0.00 | 0.00 | 25 | 1026.1 |
| 20260906221826 | 80 | 231 | 3.5 | 12.2 | 0.00 | 0.00 | 0.00 | 25 | 1026.2 |
| 20260906221327 | 80 | 203 | 4.3 | 10.4 | 0.00 | 0.00 | 0.00 | 26 | 1026.1 |
| 20260906220824 | 80 | 253 | 5.2 | 13.0 | 0.00 | 0.00 | 0.00 | 25 | 1026.2 |
| 20260906220325 | 80 | 242 | 5.2 | 13.0 | 0.00 | 0.00 | 0.00 | 25 | 1026.2 |
| 20260906220056 | 80 | 193 | 5.2 | 13.9 | 0.00 | 0.00 | 0.00 | 26 | 1026.5 |
| 20260906215324 | 79 | 194 | 5.2 | 13.9 | 0.00 | 0.00 | 0.00 | 26 | 1026.5 |
| 20260906214827 | 79 | 180 | 5.2 | 13.9 | 0.00 | 0.00 | 0.00 | 26 | 1026.6 |
| 20260906214319 | 79 | 232 | 6.1 | 13.9 | 0.00 | 0.00 | 0.00 | 25 | 1026.8 |
| 20260906213821 | 79 | 223 | 6.1 | 11.3 | 0.00 | 0.00 | 0.00 | 24 | 1026.8 |
| 20260906213320 | 79 | 182 | 5.2 | 10.4 | 0.00 | 0.00 | 0.00 | 23 | 1026.8 |
| 20260906212320 | 80 | 183 | 6.1 | 14.8 | 0.00 | 0.00 | 0.00 | 21 | 1026.9 |
| 20260906211820 | 80 | 294 | 6.1 | 12.2 | 0.00 | 0.00 | 0.00 | 20 | 1027.0 |
| 20260906211320 | 79 | 245 | 6.1 | 12.2 | 0.00 | 0.00 | 0.00 | 24 | 1027.0 |
| 20260906210820 | 79 | 271 | 6.1 | 12.2 | 0.00 | 0.00 | 0.00 | 25 | 1027.0 |
| 20260906210322 | 79 | 190 | 6.1 | 15.6 | 0.00 | 0.00 | 0.00 | 24 | 1027.2 |
| 20260906205822 | 78 | 253 | 7.8 | 16.5 | 0.00 | 0.00 | 0.00 | 25 | 1027.4 |
| 20260906205321 | 78 | 173 | 7.8 | 16.5 | 0.00 | 0.00 | 0.00 | 26 | 1027.3 |
| 20260906204820 | 79 | 245 | 7.8 | 16.5 | 0.00 | 0.00 | 0.00 | 24 | 1027.4 |
| 20260906204320 | 79 | 283 | 7.8 | 14.8 | 0.00 | 0.00 | 0.00 | 26 | 1027.2 |
| 20260906203820 | 79 | 267 | 7.0 | 13.9 | 0.00 | 0.00 | 0.00 | 27 | 1027.3 |
| 20260906203320 | 79 | 178 | 7.0 | 13.9 | 0.00 | 0.00 | 0.00 | 25 | 1027.3 |
| 20260906203051 | 79 | 221 | 7.0 | 13.0 | 0.00 | 0.00 | 0.00 | 22 | 1027.2 |
| 20260906202321 | 79 | 252 | 7.0 | 13.0 | 0.00 | 0.00 | 0.00 | 23 | 1027.3 |
| 20260906201820 | 79 | 259 | 6.1 | 13.0 | 0.00 | 0.00 | 0.00 | 25 | 1027.4 |
| 20260906201316 | 78 | 183 | 6.1 | 13.0 | 0.00 | 0.00 | 0.00 | 24 | 1027.4 |
| 20260906201046 | 78 | 193 | 7.0 | 15.6 | 0.00 | 0.00 | 0.00 | 24 | 1027.4 |
| 20260906200303 | 78 | 194 | 7.8 | 15.6 | 0.00 | 0.00 | 0.00 | 25 | 1027.5 |
| 20260906200029 | 78 | 211 | 7.0 | 12.2 | 0.00 | 0.00 | 0.00 | 24 | 1027.5 |
| 20260906195256 | 78 | 190 | 7.0 | 15.6 | 0.00 | 0.00 | 0.00 | 25 | 1027.4 |
| 20260906194756 | 79 | 195 | 5.2 | 15.6 | 0.00 | 0.00 | 0.00 | 24 | 1027.5 |
| 20260906194255 | 79 | 173 | 3.5 | 8.7 | 0.00 | 0.00 | 0.00 | 27 | 1027.4 |
| 20260906193758 | 78 | 115 | 4.3 | 8.7 | 0.00 | 0.00 | 0.00 | 27 | 1027.4 |
| 20260906193257 | 79 | 130 | 5.2 | 12.2 | 0.00 | 0.00 | 0.00 | 27 | 1027.7 |
| 20260906192755 | 78 | 221 | 6.1 | 12.2 | 0.00 | 0.00 | 0.00 | 29 | 1027.7 |
| 20260906192526 | 79 | 190 | 6.1 | 14.8 | 0.00 | 0.00 | 0.00 | 28 | 1027.8 |
| 20260906191755 | 78 | 190 | 6.1 | 14.8 | 0.00 | 0.00 | 0.00 | 29 | 1027.7 |
| 20260906191254 | 79 | 278 | 5.2 | 11.3 | 0.00 | 0.00 | 0.00 | 30 | 1027.8 |
| 20260906190754 | 79 | 226 | 4.3 | 11.3 | 0.00 | 0.00 | 0.00 | 29 | 1027.9 |
| 20260906190254 | 78 | 171 | 3.5 | 10.4 | 0.00 | 0.00 | 0.00 | 30 | 1027.9 |
| 20260906190026 | 78 | 123 | 3.5 | 12.2 | 0.00 | 0.00 | 0.00 | 29 | 1027.9 |
| 20260906185254 | 78 | 127 | 2.6 | 12.2 | 0.00 | 0.00 | 0.00 | 28 | 1028.1 |
| 20260906184253 | 78 | 169 | 2.6 | 8.7 | 0.00 | 0.00 | 0.00 | 30 | 1028.2 |
| 20260906183754 | 78 | 246 | 2.6 | 8.7 | 0.00 | 0.00 | 0.00 | 29 | 1028.3 |
| 20260906183249 | 78 | 171 | 1.7 | 8.7 | 0.00 | 0.00 | 0.00 | 30 | 1028.3 |
| 20260906182743 | 78 | 321 | 1.7 | 7.0 | 0.00 | 0.00 | 0.00 | 33 | 1028.3 |
| 20260906182236 | 77 | 306 | 3.5 | 7.0 | 0.00 | 0.00 | 0.00 | 35 | 1028.5 |
| 20260906181731 | 77 | 169 | 4.3 | 7.8 | 0.00 | 0.00 | 0.00 | 32 | 1028.6 |
| 20260906181224 | 77 | 219 | 3.5 | 7.8 | 0.00 | 0.00 | 0.00 | 33 | 1028.7 |
| 20260906180718 | 77 | 288 | 2.6 | 7.0 | 0.00 | 0.00 | 0.00 | 34 | 1028.9 |
| 20260906180212 | 76 | 70 | 2.6 | 7.8 | 0.00 | 0.00 | 0.00 | 36 | 1029.0 |
| 20260906175706 | 76 | 139 | 3.5 | 9.6 | 0.00 | 0.00 | 0.00 | 35 | 1029.1 |
| 20260906175200 | 76 | 161 | 3.5 | 9.6 | 0.00 | 0.00 | 0.00 | 35 | 1029.3 |
| 20260906174655 | 76 | 275 | 3.5 | 8.7 | 0.00 | 0.00 | 0.00 | 34 | 1029.4 |
| 20260906174419 | 76 | 225 | 1.7 | 8.7 | 0.00 | 0.00 | 0.00 | 35 | 1029.5 |
| 20260906173642 | 76 | 148 | 0.9 | 5.2 | 0.00 | 0.00 | 0.00 | 34 | 1029.6 |
| 20260906173136 | 76 | 265 | 0.9 | 5.2 | 0.00 | 0.00 | 0.00 | 36 | 1029.8 |
| 20260906172630 | 76 | 212 | 0.9 | 3.5 | 0.00 | 0.00 | 0.00 | 37 | 1029.9 |
| 20260906172125 | 75 | 274 | 0.9 | 3.5 | 0.00 | 0.00 | 0.00 | 37 | 1029.9 |
| 20260906171112 | 75 | 167 | 1.7 | 5.2 | 0.00 | 0.00 | 0.00 | 35 | 1030.0 |
| 20260906170606 | 74 | 198 | 1.7 | 5.2 | 0.00 | 0.00 | 0.00 | 39 | 1030.0 |
| 20260906170100 | 74 | 302 | 2.6 | 6.1 | 0.00 | 0.00 | 0.00 | 38 | 1030.2 |
| 20260906165555 | 74 | 197 | 2.6 | 6.1 | 0.00 | 0.00 | 0.00 | 38 | 1030.0 |
| 20260906165319 | 73 | 182 | 2.6 | 7.8 | 0.00 | 0.00 | 0.00 | 40 | 1030.0 |
| 20260906164542 | 72 | 281 | 3.5 | 7.8 | 0.00 | 0.00 | 0.00 | 40 | 1030.0 |
| 20260906164318 | 72 | 183 | 3.5 | 7.0 | 0.00 | 0.00 | 0.00 | 41 | 1029.9 |
| 20260906163801 | 72 | 195 | 3.5 | 7.0 | 0.00 | 0.00 | 0.00 | 41 | 1029.8 |
| 20260906162518 | 72 | 192 | 3.5 | 7.0 | 0.00 | 0.00 | 0.00 | 42 | 1029.8 |
| 20260906162012 | 72 | 258 | 2.6 | 7.0 | 0.00 | 0.00 | 0.00 | 41 | 1029.8 |
| 20260906161507 | 72 | 218 | 2.6 | 6.1 | 0.00 | 0.00 | 0.00 | 42 | 1029.8 |
| 20260906161001 | 71 | 193 | 2.6 | 6.1 | 0.00 | 0.00 | 0.00 | 43 | 1029.8 |
| 20260906160727 | 71 | 217 | 2.6 | 4.3 | 0.00 | 0.00 | 0.00 | 43 | 1029.6 |
| 20260906155948 | 70 | 202 | 2.6 | 5.2 | 0.00 | 0.00 | 0.00 | 49 | 1029.8 |
| 20260906155442 | 69 | 220 | 2.6 | 5.2 | 0.00 | 0.00 | 0.00 | 48 | 1029.8 |
| 20260906155207 | 69 | 237 | 2.6 | 4.3 | 0.00 | 0.00 | 0.00 | 50 | 1029.6 |
| 20260906154430 | 68 | 197 | 2.6 | 4.3 | 0.00 | 0.00 | 0.00 | 50 | 1029.6 |
| 20260906153928 | 67 | 200 | 3.5 | 4.3 | 0.00 | 0.00 | 0.00 | 51 | 1029.5 |
| 20260906153429 | 67 | 196 | 3.5 | 4.3 | 0.00 | 0.00 | 0.00 | 52 | 1029.4 |
| 20260906153159 | 66 | 218 | 2.6 | 5.2 | 0.00 | 0.00 | 0.00 | 52 | 1029.4 |
| 20260906152427 | 66 | 196 | 1.7 | 5.2 | 0.00 | 0.00 | 0.00 | 53 | 1029.4 |
| 20260906151927 | 65 | 198 | 0.9 | 3.5 | 0.00 | 0.00 | 0.00 | 56 | 1029.4 |
| 20260906151429 | 64 | 201 | 0.0 | 0.0 | 0.00 | 0.00 | 0.00 | 57 | 1029.3 |
| 20260906150925 | 63 | 192 | 0.0 | 0.0 | 0.00 | 0.00 | 0.00 | 58 | 1029.3 |
| 20260906150427 | 62 | 187 | 0.0 | 0.0 | 0.00 | 0.00 | 0.00 | 60 | 1029.4 |
| 20260906145925 | 62 | 192 | 0.0 | 2.6 | 0.00 | 0.00 | 0.00 | 59 | 1029.5 |
| 20260906145425 | 61 | 189 | 0.9 | 2.6 | 0.00 | 0.00 | 0.00 | 63 | 1029.5 |
| 20260906145155 | 61 | 192 | 0.9 | 2.6 | 0.00 | 0.00 | 0.00 | 65 | 1029.5 |
| 20260906144651 | 60 | 191 | 0.0 | 1.7 | 0.00 | 0.00 | 0.00 | 67 | 1029.5 |
| 20260906143922 | 58 | 173 | 0.0 | 0.0 | 0.00 | 0.00 | 0.00 | 70 | 1029.4 |
| 20260906143419 | 57 | 71 | 0.0 | 0.0 | 0.00 | 0.00 | 0.00 | 72 | 1029.4 |
| 20260906143147 | 56 | 71 | 0.0 | 0.0 | 0.00 | 0.00 | 0.00 | 74 | 1029.4 |
| 20260906142413 | 55 | 71 | 0.0 | 0.0 | 0.00 | 0.00 | 0.00 | 77 | 1029.4 |
| 20260906141913 | 54 | 71 | 0.0 | 0.0 | 0.00 | 0.00 | 0.00 | 81 | 1029.3 |
| 20260906141413 | 53 | 71 | 0.0 | 0.0 | 0.00 | 0.00 | 0.00 | 84 | 1029.4 |
| 20260906140914 | 52 | 71 | 0.0 | 0.0 | 0.00 | 0.00 | 0.00 | 85 | 1029.4 |
| 20260906140408 | 51 | 71 | 0.0 | 0.0 | 0.00 | 0.00 | 0.00 | 85 | 1029.4 |
| 20260906135908 | 51 | 71 | 0.0 | 0.0 | 0.00 | 0.00 | 0.00 | 86 | 1029.3 |
| 20260906135358 | 50 | 71 | 0.0 | 0.0 | 0.00 | 0.00 | 0.00 | 86 | 1029.1 |
| 20260906134858 | 49 | 71 | 0.0 | 0.0 | 0.00 | 0.00 | 0.00 | 86 | 1029.1 |
| 20260906134359 | 49 | 71 | 0.0 | 0.0 | 0.00 | 0.00 | 0.00 | 88 | 1029.1 |
| 20260906133857 | 48 | 71 | 0.0 | 0.0 | 0.00 | 0.00 | 0.00 | 89 | 1029.0 |
| 20260906133357 | 47 | 71 | 0.0 | 0.0 | 0.00 | 0.00 | 0.00 | 88 | 1028.9 |
| 20260906132858 | 47 | 71 | 0.0 | 0.0 | 0.00 | 0.00 | 0.00 | 88 | 1029.0 |
| 20260906132629 | 47 | 71 | 0.0 | 0.0 | 0.00 | 0.00 | 0.00 | 89 | 1029.0 |
| 20260906131859 | 46 | 71 | 0.0 | 0.0 | 0.00 | 0.00 | 0.00 | 89 | 1028.9 |
| 20260906131629 | 46 | 71 | 0.0 | 0.0 | 0.00 | 0.00 | 0.00 | 89 | 1029.0 |
| 20260906130901 | 46 | 71 | 0.0 | 0.0 | 0.00 | 0.00 | 0.00 | 90 | 1029.0 |
| 20260906130355 | 45 | 71 | 0.0 | 0.0 | 0.00 | 0.00 | 0.00 | 90 | 1029.0 |
| 20260906125856 | 45 | 71 | 0.0 | 0.0 | 0.00 | 0.00 | 0.00 | 90 | 1029.0 |
| 20260906125354 | 45 | 71 | 0.0 | 0.0 | 0.00 | 0.00 | 0.00 | 89 | 1029.0 |
| 20260906124625 | 45 | 71 | 0.0 | 0.0 | 0.00 | 0.00 | 0.00 | 88 | 1029.1 |
| 20260906123854 | 46 | 71 | 0.0 | 0.0 | 0.00 | 0.00 | 0.00 | 89 | 1029.3 |
| 20260906123353 | 46 | 71 | 0.0 | 0.0 | 0.00 | 0.00 | 0.00 | 88 | 1029.1 |
| 20260906122855 | 46 | 71 | 0.0 | 0.0 | 0.00 | 0.00 | 0.00 | 88 | 1029.1 |
| 20260906122626 | 46 | 71 | 0.0 | 0.0 | 0.00 | 0.00 | 0.00 | 88 | 1029.0 |
| 20260906122122 | 46 | 71 | 0.0 | 0.0 | 0.00 | 0.00 | 0.00 | 88 | 1029.0 |
| 20260906120852 | 46 | 71 | 0.0 | 0.0 | 0.00 | 0.00 | 0.00 | 88 | 1029.0 |
| 20260906120625 | 46 | 71 | 0.0 | 0.0 | 0.00 | 0.00 | 0.00 | 88 | 1029.0 |
| 20260906115853 | 46 | 71 | 0.0 | 0.0 | 0.00 | 0.00 | 0.00 | 87 | 1029.0 |
| 20260906115623 | 46 | 71 | 0.0 | 0.0 | 0.00 | 0.00 | 0.00 | 86 | 1028.7 |
| 20260906114852 | 47 | 71 | 0.0 | 0.0 | 0.00 | 0.00 | 0.00 | 86 | 1028.6 |
| 20260906114353 | 47 | 71 | 0.0 | 0.0 | 0.00 | 0.00 | 0.00 | 85 | 1028.7 |
| 20260906113852 | 47 | 71 | 0.0 | 0.0 | 0.00 | 0.00 | 0.00 | 85 | 1028.6 |
| 20260906113353 | 47 | 71 | 0.0 | 0.0 | 0.00 | 0.00 | 0.00 | 85 | 1028.6 |
| 20260906112852 | 47 | 71 | 0.0 | 0.0 | 0.00 | 0.00 | 0.00 | 84 | 1028.6 |
| 20260906112354 | 48 | 71 | 0.0 | 0.0 | 0.00 | 0.00 | 0.00 | 83 | 1028.7 |
| 20260906111847 | 48 | 71 | 0.0 | 0.0 | 0.00 | 0.00 | 0.00 | 84 | 1028.6 |
| 20260906111613 | 48 | 71 | 0.0 | 0.0 | 0.00 | 0.00 | 0.00 | 84 | 1028.5 |
| 20260906110835 | 48 | 71 | 0.0 | 0.0 | 0.00 | 0.00 | 0.00 | 84 | 1028.5 |
| 20260906110328 | 48 | 71 | 0.0 | 0.0 | 0.00 | 0.00 | 0.00 | 83 | 1028.5 |
| 20260906105822 | 48 | 71 | 0.0 | 0.0 | 0.00 | 0.00 | 0.00 | 83 | 1028.3 |
| 20260906105548 | 48 | 71 | 0.0 | 0.0 | 0.00 | 0.00 | 0.00 | 82 | 1028.3 |
| 20260906104812 | 49 | 71 | 0.0 | 0.0 | 0.00 | 0.00 | 0.00 | 82 | 1028.3 |
| 20260906104306 | 49 | 71 | 0.0 | 0.0 | 0.00 | 0.00 | 0.00 | 82 | 1028.3 |
| 20260906103800 | 49 | 71 | 0.0 | 0.0 | 0.00 | 0.00 | 0.00 | 82 | 1028.5 |
| 20260906103253 | 49 | 71 | 0.0 | 0.0 | 0.00 | 0.00 | 0.00 | 82 | 1028.5 |
| 20260906102749 | 49 | 71 | 0.0 | 0.0 | 0.00 | 0.00 | 0.00 | 82 | 1028.5 |
| 20260906102241 | 49 | 71 | 0.0 | 0.0 | 0.00 | 0.00 | 0.00 | 82 | 1028.5 |
| 20260906101228 | 49 | 71 | 0.0 | 0.0 | 0.00 | 0.00 | 0.00 | 82 | 1028.6 |
| 20260906100722 | 49 | 71 | 0.0 | 0.0 | 0.00 | 0.00 | 0.00 | 82 | 1028.6 |
| 20260906100448 | 49 | 71 | 0.0 | 0.0 | 0.00 | 0.00 | 0.00 | 82 | 1028.6 |
| 20260906095942 | 49 | 71 | 0.0 | 0.0 | 0.00 | 0.00 | 0.00 | 83 | 1028.7 |
| 20260906095205 | 49 | 71 | 0.0 | 0.0 | 0.00 | 0.00 | 0.00 | 83 | 1028.7 |
| 20260906094932 | 49 | 71 | 0.0 | 0.0 | 0.00 | 0.00 | 0.00 | 83 | 1028.7 |
| 20260906094153 | 49 | 71 | 0.0 | 0.0 | 0.00 | 0.00 | 0.00 | 82 | 1028.6 |
| 20260906093647 | 49 | 71 | 0.0 | 0.0 | 0.00 | 0.00 | 0.00 | 83 | 1028.7 |
| 20260906093141 | 48 | 71 | 0.0 | 0.0 | 0.00 | 0.00 | 0.00 | 83 | 1028.7 |
| 20260906092635 | 49 | 71 | 0.0 | 0.0 | 0.00 | 0.00 | 0.00 | 82 | 1028.7 |
| 20260906092130 | 48 | 71 | 0.0 | 0.0 | 0.00 | 0.00 | 0.00 | 83 | 1028.7 |
| 20260906091623 | 48 | 71 | 0.0 | 0.0 | 0.00 | 0.00 | 0.00 | 82 | 1028.7 |
| 20260906091349 | 49 | 71 | 0.0 | 0.0 | 0.00 | 0.00 | 0.00 | 82 | 1028.6 |
| 20260906090611 | 49 | 71 | 0.0 | 0.0 | 0.00 | 0.00 | 0.00 | 82 | 1028.7 |
| 20260906090105 | 49 | 71 | 0.0 | 0.0 | 0.00 | 0.00 | 0.00 | 82 | 1028.7 |
| 20260906085558 | 49 | 71 | 0.0 | 0.0 | 0.00 | 0.00 | 0.00 | 81 | 1028.7 |
| 20260906085054 | 49 | 71 | 0.0 | 0.0 | 0.00 | 0.00 | 0.00 | 81 | 1028.6 |
| 20260906084547 | 49 | 71 | 0.0 | 0.0 | 0.00 | 0.00 | 0.00 | 81 | 1028.5 |
| 20260906084041 | 49 | 71 | 0.0 | 0.0 | 0.00 | 0.00 | 0.00 | 81 | 1028.6 |
| 20260906083806 | 49 | 71 | 0.0 | 0.0 | 0.00 | 0.00 | 0.00 | 80 | 1028.6 |
| 20260906083030 | 49 | 71 | 0.0 | 0.0 | 0.00 | 0.00 | 0.00 | 80 | 1028.7 |
| 20260906082754 | 49 | 71 | 0.0 | 0.0 | 0.00 | 0.00 | 0.00 | 80 | 1028.7 |
| 20260906082022 | 49 | 71 | 0.0 | 0.0 | 0.00 | 0.00 | 0.00 | 80 | 1028.7 |
| 20260906081510 | 49 | 71 | 0.0 | 0.0 | 0.00 | 0.00 | 0.00 | 80 | 1028.9 |
| 20260906081235 | 49 | 71 | 0.0 | 0.0 | 0.00 | 0.00 | 0.00 | 80 | 1028.9 |
| 20260906075954 | 50 | 71 | 0.0 | 0.0 | 0.00 | 0.00 | 0.00 | 79 | 1028.7 |
| 20260906075446 | 50 | 71 | 0.0 | 0.0 | 0.00 | 0.00 | 0.00 | 79 | 1029.0 |
| 20260906075212 | 50 | 71 | 0.0 | 0.0 | 0.00 | 0.00 | 0.00 | 78 | 1029.0 |
| 20260906074705 | 50 | 71 | 0.0 | 0.0 | 0.00 | 0.00 | 0.00 | 77 | 1029.0 |
| 20260906073928 | 51 | 71 | 0.0 | 1.7 | 0.00 | 0.00 | 0.00 | 77 | 1029.1 |
| 20260906073423 | 51 | 71 | 0.0 | 1.7 | 0.00 | 0.00 | 0.00 | 76 | 1029.1 |
| 20260906072918 | 51 | 71 | 0.0 | 0.0 | 0.00 | 0.00 | 0.00 | 76 | 1029.1 |
| 20260906072410 | 51 | 71 | 0.0 | 0.9 | 0.00 | 0.00 | 0.00 | 76 | 1029.0 |
| 20260906071907 | 51 | 71 | 0.0 | 0.9 | 0.00 | 0.00 | 0.00 | 76 | 1029.0 |
| 20260906071358 | 51 | 71 | 0.9 | 2.6 | 0.00 | 0.00 | 0.00 | 76 | 1029.0 |
| 20260906070902 | 51 | 71 | 0.9 | 2.6 | 0.00 | 0.00 | 0.00 | 77 | 1029.0 |
| 20260906070348 | 51 | 71 | 0.0 | 0.9 | 0.00 | 0.00 | 0.00 | 76 | 1029.0 |
| 20260906065841 | 51 | 71 | 0.0 | 0.9 | 0.00 | 0.00 | 0.00 | 76 | 1029.0 |
| 20260906065334 | 52 | 71 | 0.0 | 0.9 | 0.00 | 0.00 | 0.00 | 75 | 1028.9 |
| 20260906064829 | 52 | 71 | 0.0 | 2.6 | 0.00 | 0.00 | 0.00 | 75 | 1029.0 |
| 20260906064321 | 52 | 73 | 0.0 | 2.6 | 0.00 | 0.00 | 0.00 | 75 | 1029.0 |
| 20260906063816 | 52 | 26 | 0.0 | 2.6 | 0.00 | 0.00 | 0.00 | 75 | 1029.0 |
| 20260906063310 | 51 | 26 | 0.0 | 2.6 | 0.00 | 0.00 | 0.00 | 76 | 1029.0 |
| 20260906062804 | 51 | 19 | 0.0 | 1.7 | 0.00 | 0.00 | 0.00 | 76 | 1029.0 |
| 20260906062259 | 51 | 19 | 0.9 | 2.6 | 0.00 | 0.00 | 0.00 | 76 | 1029.0 |
| 20260906061753 | 51 | 19 | 0.0 | 2.6 | 0.00 | 0.00 | 0.00 | 76 | 1029.1 |
| 20260906061245 | 51 | 57 | 0.0 | 0.0 | 0.00 | 0.00 | 0.00 | 74 | 1029.0 |
| 20260906060740 | 51 | 57 | 0.0 | 0.0 | 0.00 | 0.00 | 0.00 | 74 | 1029.1 |
| 20260906060240 | 51 | 57 | 0.0 | 0.9 | 0.00 | 0.00 | 0.00 | 74 | 1029.0 |
| 20260906055738 | 51 | 57 | 0.0 | 2.6 | 0.00 | 0.00 | 0.00 | 74 | 1029.1 |
| 20260906055237 | 51 | 57 | 0.0 | 2.6 | 0.00 | 0.00 | 0.00 | 74 | 1029.3 |
| 20260906054739 | 51 | 57 | 0.9 | 2.6 | 0.00 | 0.00 | 0.00 | 73 | 1029.3 |
| 20260906054238 | 51 | 57 | 0.9 | 3.5 | 0.00 | 0.00 | 0.00 | 73 | 1029.3 |
| 20260906053735 | 52 | 71 | 0.0 | 3.5 | 0.00 | 0.00 | 0.00 | 73 | 1029.1 |
| 20260906053234 | 52 | 67 | 0.0 | 0.0 | 0.00 | 0.00 | 0.00 | 72 | 1029.1 |
| 20260906052733 | 52 | 67 | 0.0 | 0.0 | 0.00 | 0.00 | 0.00 | 72 | 1029.1 |
| 20260906052234 | 52 | 67 | 0.0 | 0.0 | 0.00 | 0.00 | 0.00 | 71 | 1029.0 |
| 20260906051502 | 53 | 67 | 0.0 | 0.0 | 0.00 | 0.00 | 0.00 | 70 | 1029.1 |
| 20260906050729 | 53 | 67 | 0.0 | 0.0 | 0.00 | 0.00 | 0.00 | 69 | 1029.0 |
| 20260906050229 | 53 | 67 | 0.0 | 0.0 | 0.00 | 0.00 | 0.00 | 69 | 1029.1 |
| 20260906045728 | 54 | 67 | 0.0 | 0.0 | 0.00 | 0.00 | 0.00 | 69 | 1029.1 |
| 20260906045226 | 54 | 67 | 0.0 | 0.0 | 0.00 | 0.00 | 0.00 | 68 | 1029.1 |
| 20260906044222 | 55 | 67 | 0.0 | 0.0 | 0.00 | 0.00 | 0.00 | 67 | 1029.1 |
| 20260906043715 | 56 | 67 | 0.0 | 0.0 | 0.00 | 0.00 | 0.00 | 66 | 1029.1 |
| 20260906042702 | 56 | 67 | 0.0 | 0.0 | 0.00 | 0.00 | 0.00 | 64 | 1029.1 |
| 20260906042157 | 57 | 67 | 0.0 | 0.0 | 0.00 | 0.00 | 0.00 | 63 | 1029.3 |
| 20260906041650 | 57 | 67 | 0.0 | 2.6 | 0.00 | 0.00 | 0.00 | 63 | 1029.3 |
| 20260906041143 | 58 | 67 | 0.0 | 2.6 | 0.00 | 0.00 | 0.00 | 62 | 1029.1 |
| 20260906040640 | 58 | 67 | 0.9 | 2.6 | 0.00 | 0.00 | 0.00 | 61 | 1029.1 |
| 20260906040405 | 58 | 31 | 0.9 | 2.6 | 0.00 | 0.00 | 0.00 | 60 | 1029.1 |
| 20260906035628 | 58 | 41 | 0.9 | 2.6 | 0.00 | 0.00 | 0.00 | 59 | 1029.1 |
| 20260906035122 | 58 | 63 | 0.0 | 7.0 | 0.00 | 0.00 | 0.00 | 60 | 1029.3 |
| 20260906034615 | 58 | 75 | 0.9 | 7.0 | 0.00 | 0.00 | 0.00 | 60 | 1029.3 |
| 20260906034109 | 58 | 40 | 2.6 | 8.7 | 0.00 | 0.00 | 0.00 | 62 | 1029.3 |
| 20260906033603 | 57 | 69 | 2.6 | 8.7 | 0.00 | 0.00 | 0.00 | 63 | 1029.3 |
| 20260906033057 | 56 | 59 | 1.7 | 7.0 | 0.00 | 0.00 | 0.00 | 64 | 1029.1 |
| 20260906032551 | 55 | 55 | 1.7 | 7.0 | 0.00 | 0.00 | 0.00 | 64 | 1029.1 |
| 20260906032045 | 55 | 60 | 0.9 | 3.5 | 0.00 | 0.00 | 0.00 | 66 | 1029.1 |
| 20260906031539 | 56 | 83 | 0.0 | 1.7 | 0.00 | 0.00 | 0.00 | 66 | 1029.0 |
| 20260906030527 | 56 | 74 | 0.0 | 1.7 | 0.00 | 0.00 | 0.00 | 65 | 1028.7 |
| 20260906030252 | 56 | 74 | 0.9 | 1.7 | 0.00 | 0.00 | 0.00 | 65 | 1028.6 |
| 20260906025515 | 57 | 66 | 0.9 | 2.6 | 0.00 | 0.00 | 0.00 | 63 | 1028.7 |
| 20260906025012 | 57 | 66 | 0.9 | 2.6 | 0.00 | 0.00 | 0.00 | 63 | 1028.6 |
| 20260906024503 | 57 | 77 | 0.9 | 3.5 | 0.00 | 0.00 | 0.00 | 63 | 1028.5 |
| 20260906023956 | 57 | 77 | 0.9 | 3.5 | 0.00 | 0.00 | 0.00 | 62 | 1028.5 |
| 20260906023450 | 58 | 69 | 0.0 | 2.6 | 0.00 | 0.00 | 0.00 | 61 | 1028.5 |
| 20260906023319 | 58 | 72 | 0.0 | 0.0 | 0.00 | 0.00 | 0.00 | 60 | 1028.5 |
| 20260906022440 | 59 | 72 | 0.0 | 0.0 | 0.00 | 0.00 | 0.00 | 59 | 1028.5 |
| 20260906022206 | 60 | 72 | 0.0 | 0.0 | 0.00 | 0.00 | 0.00 | 57 | 1028.3 |
| 20260906021428 | 60 | 72 | 0.0 | 0.0 | 0.00 | 0.00 | 0.00 | 58 | 1028.3 |
| 20260906020921 | 61 | 72 | 0.9 | 2.6 | 0.00 | 0.00 | 0.00 | 56 | 1028.2 |
| 20260906020415 | 62 | 72 | 0.9 | 2.6 | 0.00 | 0.00 | 0.00 | 55 | 1028.2 |
| 20260906015909 | 63 | 53 | 1.7 | 3.5 | 0.00 | 0.00 | 0.00 | 53 | 1028.1 |
| 20260906014856 | 64 | 24 | 0.9 | 2.6 | 0.00 | 0.00 | 0.00 | 51 | 1028.1 |
| 20260906014350 | 65 | 22 | 0.9 | 2.6 | 0.00 | 0.00 | 0.00 | 50 | 1028.1 |
| 20260906013851 | 65 | 49 | 0.0 | 0.0 | 0.00 | 0.00 | 0.00 | 49 | 1027.9 |
| 20260906013351 | 65 | 49 | 0.0 | 2.6 | 0.00 | 0.00 | 0.00 | 48 | 1027.9 |
| 20260906013120 | 66 | 49 | 0.0 | 2.6 | 0.00 | 0.00 | 0.00 | 48 | 1027.9 |
| 20260906012348 | 66 | 49 | 0.9 | 3.5 | 0.00 | 0.00 | 0.00 | 48 | 1027.9 |
| 20260906011846 | 66 | 73 | 1.7 | 7.8 | 0.00 | 0.00 | 0.00 | 46 | 1027.8 |
| 20260906011344 | 67 | 73 | 1.7 | 7.8 | 0.00 | 0.00 | 0.00 | 46 | 1027.8 |
| 20260906010840 | 67 | 76 | 2.6 | 7.8 | 0.00 | 0.00 | 0.00 | 45 | 1027.8 |
| 20260906010341 | 67 | 26 | 3.5 | 8.7 | 0.00 | 0.00 | 0.00 | 45 | 1027.7 |
| 20260906005843 | 67 | 68 | 3.5 | 8.7 | 0.00 | 0.00 | 0.00 | 44 | 1027.8 |
| 20260906005611 | 68 | 56 | 4.3 | 8.7 | 0.00 | 0.00 | 0.00 | 44 | 1027.8 |
| 20260906004843 | 68 | 26 | 4.3 | 7.8 | 0.00 | 0.00 | 0.00 | 44 | 1027.9 |
| 20260906004341 | 68 | 56 | 4.3 | 8.7 | 0.00 | 0.00 | 0.00 | 44 | 1027.9 |
| 20260906003838 | 68 | 101 | 5.2 | 10.4 | 0.00 | 0.00 | 0.00 | 44 | 1027.9 |
| 20260906003340 | 69 | 93 | 4.3 | 10.4 | 0.00 | 0.00 | 0.00 | 43 | 1027.8 |
| 20260906003108 | 69 | 22 | 5.2 | 10.4 | 0.00 | 0.00 | 0.00 | 43 | 1027.9 |
| 20260906002338 | 69 | 68 | 5.2 | 13.0 | 0.00 | 0.00 | 0.00 | 42 | 1027.9 |
| 20260906001837 | 69 | 88 | 4.3 | 13.0 | 0.00 | 0.00 | 0.00 | 42 | 1027.8 |
| 20260906001337 | 70 | 78 | 5.2 | 12.2 | 0.00 | 0.00 | 0.00 | 41 | 1027.9 |
| 20260906000832 | 69 | 61 | 5.2 | 13.9 | 0.00 | 0.00 | 0.00 | 41 | 1027.9 |
| 20260906000326 | 69 | 84 | 6.1 | 13.9 | 0.00 | 0.00 | 0.00 | 41 | 1027.9 |
| 20260905235820 | 68 | 68 | 4.3 | 13.0 | 0.00 | 0.00 | 0.00 | 43 | 1027.8 |
| 20260905235322 | 67 | 95 | 1.7 | 10.4 | 0.00 | 0.00 | 0.00 | 50 | 1027.8 |
| 20260905234821 | 66 | 106 | 1.7 | 3.5 | 0.00 | 0.00 | 0.00 | 55 | 1028.2 |
| 20260905234321 | 66 | 355 | 2.6 | 6.1 | 0.00 | 0.00 | 0.00 | 59 | 1028.6 |
| 20260905233818 | 67 | 78 | 2.6 | 6.1 | 0.00 | 0.00 | 0.00 | 59 | 1028.6 |
| 20260905233316 | 68 | 77 | 0.9 | 4.3 | 0.00 | 0.00 | 0.00 | 60 | 1028.5 |
| 20260905232816 | 69 | 327 | 0.0 | 2.6 | 0.00 | 0.00 | 0.00 | 53 | 1028.6 |
| 20260905232314 | 69 | 331 | 0.9 | 3.5 | 0.00 | 0.00 | 0.00 | 49 | 1028.6 |
| 20260905231813 | 69 | 13 | 1.7 | 3.5 | 0.00 | 0.00 | 0.00 | 47 | 1028.5 |
| 20260905231314 | 69 | 44 | 2.6 | 7.0 | 0.00 | 0.00 | 0.00 | 45 | 1028.3 |
| 20260905230813 | 69 | 76 | 3.5 | 7.0 | 0.00 | 0.00 | 0.00 | 44 | 1028.2 |
| 20260905230320 | 69 | 18 | 3.5 | 7.8 | 0.00 | 0.00 | 0.00 | 44 | 1028.2 |
| 20260905225846 | 69 | 32 | 4.3 | 8.7 | 0.00 | 0.00 | 0.00 | 45 | 1028.1 |
| 20260905225312 | 69 | 22 | 5.2 | 10.4 | 0.00 | 0.00 | 0.00 | 44 | 1028.1 |
| 20260905224813 | 69 | 65 | 6.1 | 10.4 | 0.00 | 0.00 | 0.00 | 45 | 1028.1 |
| 20260905224309 | 69 | 81 | 6.1 | 13.9 | 0.00 | 0.00 | 0.00 | 43 | 1027.9 |
| 20260905223808 | 69 | 67 | 6.1 | 13.9 | 0.00 | 0.00 | 0.00 | 43 | 1028.1 |